Location: Niles Junction
(37.5763°N, 121.9714°W)
Time: 03:30:20
(UTC+00:00)

ERS-2 - Pass Details

Date: 29 October 2020
Orbit: 493 x 498 km, 98.6° (Epoch: 23 November)

Event Time Altitude Azimuth Distance (km) Brightness Sun altitude
Rises 13:37:47 0° 201° (SSW) 2,564 5.6 -11.0°
Reaches altitude 10° 13:40:23 10° 221° (SW) 1,686 4.5 -10.5°
Maximum altitude 13:42:51 17° 264° (W) 1,296 3.6 -10.0°
Enters shadow 13:45:11 11° 306° (NW) 1,652 4.2 -9.6°
